Wind_Speed
1 3 6 8 9 9 10 10 10 10 11 11 11 11 10 8 5 4 2 1 2 1 2 2 3 3 3 4 5 7 8 9 10 11 11 10 10 10 10 9 9 8 6
1 3 5 7 7 8 10 10 9 10 10 11 11 10 8 8 7 4 2 2 2 2 2 2 3 3 4 4 6 8 9 11 11 10 11 11 12 12 12 12 11 9 9
2 3 5 6 6 7 9 10 11 11 11 10 10 9 9 7 5 3 1 1 1 1 2 3 4 5 6 6 7 9 10 11 11 12 13 13 13 14 14 14 13 12 11
1 3 3 4 4 6 7 10 11 12 12 11 10 8 6 6 5 2 1 1 1 2 3 4 5 6 7 8 9 10 11 12 12 14 14 15 16 15 16 16 15 14 13
3 2 2 2 3 4 6 9 10 12 13 13 11 9 6 4 2 2 1 2 2 3 4 5 6 7 8 9 10 11 13 14 14 15 15 16 16 16 16 16 16 16 15
4 4 2 2 2 3 5 8 10 11 13 15 14 12 10 7 3 2 1 1 2 3 5 6 7 8 9 9 10 11 12 13 13 13 14 14 15 14 16 16 16 17 16
7 6 4 4 2 3 4 7 9 11 13 15 15 14 13 9 6 3 2 2 2 2 3 5 6 7 8 9 9 10 11 12 13 14 14 15 15 16 16 16 17 17 17
10 9 7 6 4 3 3 5 8 9 12 14 15 14 13 12 9 6 3 1 1 2 4 5 6 7 7 8 9 10 11 12 14 15 15 16 17 16 16 16 17 17 17
13 12 9 9 7 5 4 4 6 8 10 13 14 13 12 11 10 9 7 5 5 4 4 4 5 6 7 8 9 10 11 12 13 15 16 17 16 16 17 17 17 18 18
15 13 12 11 10 8 6 4 5 6 8 11 13 12 12 10 9 8 6 5 6 6 7 8 8 8 9 9 9 10 11 12 12 14 15 17 17 17 17 18 19 19 20
14 14 14 13 12 11 8 7 4 6 8 10 11 12 12 11 9 8 8 8 8 9 9 9 9 9 9 10 11 12 13 13 14 15 17 18 19 18 19 19 19 18 19
15 14 14 14 15 13 11 10 7 7 9 10 11 12 12 13 12 10 10 10 11 12 11 11 10 10 11 13 15 15 16 17 18 19 20 21 22 22 22 22 22 22 23
19 18 15 15 16 16 15 14 11 10 10 11 11 12 13 13 13 13 13 13 13 14 13 14 14 15 13 15 16 18 18 19 20 21 22 23 24 24 24 24 26 27 27
20 21 19 16 16 17 18 17 15 13 12 13 13 14 15 14 13 13 14 14 15 15 16 16 16 18 17 18 19 20 20 21 23 24 24 24 23 23 24 26 26 27 29
27 24 20 19 17 18 19 19 18 16 16 15 15 17 17 16 15 14 15 15 16 17 18 19 19 20 20 20 21 23 24 24 23 22 21 21 21 23 24 25 26 26 28
27 27 24 21 18 19 21 21 21 21 20 19 18 19 18 18 17 18 17 16 18 18 19 20 20 21 21 22 24 25 23 20 20 21 22 22 23 24 25 27 27 28 29
32 30 25 24 24 25 25 25 24 24 24 22 20 20 20 19 19 20 19 19 20 20 20 21 22 22 23 24 23 19 21 22 22 23 23 24 25 26 26 27 28 29 30
30 30 31 31 28 28 28 29 26 25 27 25 23 22 21 21 21 20 20 20 21 21 21 22 24 25 25 22 21 22 22 23 23 24 25 26 26 27 27 28 29 30 30
29 27 28 26 26 29 30 29 28 29 27 25 23 23 22 21 20 20 20 21 21 22 24 26 26 25 21 21 23 23 23 24 25 26 27 27 28 28 29 30 31 31 31
28 26 27 24 24 28 30 29 28 28 27 25 23 23 21 19 18 20 20 20 22 25 27 27 26 23 22 22 23 24 24 26 28 29 29 29 29 29 32 32 33 34 35
26 25 24 21 21 24 26 27 27 25 25 23 22 21 18 16 17 18 19 21 24 26 26 25 24 24 23 24 24 25 27 29 30 31 31 30 30 34 34 35 36 37 38
25 24 22 22 23 23 24 24 25 25 23 22 20 17 15 14 15 17 20 24 26 25 24 24 24 24 25 25 27 29 30 30 30 31 32 34 35 35 36 38 39 40 41
23 20 20 22 23 23 24 25 24 22 21 19 16 14 12 12 15 19 22 24 24 24 24 24 24 25 27 29 31 35 38 40 42 37 33 32 35 36 37 38 40 42 44
22 18 16 20 22 22 23 23 20 17 15 16 14 12 10 12 16 19 22 23 24 25 25 25 26 28 30 33 35 37 40 44 46 49 45 38 38 38 40 41 44 46 49
24 20 19 19 19 19 19 19 17 17 17 15 12 10 10 13 16 19 22 24 26 27 27 28 29 31 34 37 39 41 41 42 42 47 50 45 40 41 44 47 51 54 55
28 23 18 18 18 19 19 18 17 16 15 13 10 9 11 14 17 20 23 26 29 30 31 32 33 35 37 39 42 44 44 45 45 46 50 51 54 53 53 53 54 57 58
Wind_Direction
84 8 15 19 23 28 32 35 38 35 35 35 31 26 22 14 4 10 33 271 282 282 297 290 275 259 239 234 231 232 246 252 253 254 262 268 272 276 276 271 271 276 279
136 355 7 17 24 36 39 40 39 40 31 29 30 29 24 24 26 38 106 182 240 273 298 294 281 271 258 241 240 246 250 260 266 262 262 268 275 277 274 271 270 268 269
204 310 3 20 27 42 43 41 38 37 32 24 19 22 26 27 34 45 50 165 231 258 273 274 269 268 263 260 257 258 262 268 277 283 281 279 276 276 274 271 266 265 263
267 329 23 17 23 40 39 37 38 37 31 23 11 13 11 22 29 1 8 273 242 258 257 267 277 280 281 280 278 278 280 278 277 274 275 278 278 276 275 273 270 264 260
261 327 13 7 21 19 29 34 34 35 32 24 12 3 1 7 24 359 312 272 265 275 287 288 285 285 287 285 284 283 281 280 277 279 282 280 278 276 273 271 269 268 264
248 285 312 315 358 8 18 23 29 30 25 19 13 8 4 4 354 313 292 342 304 294 286 286 288 287 284 285 285 284 284 286 287 284 281 279 279 277 277 276 273 272 271
230 258 274 277 292 341 8 15 22 23 20 15 11 14 15 12 14 347 7 11 318 305 305 297 299 299 298 295 296 296 295 296 297 294 292 289 287 286 284 284 283 282 280
227 242 248 257 264 295 332 358 16 19 16 10 7 9 14 16 24 25 41 328 314 326 309 311 313 309 307 306 303 303 300 300 298 298 300 298 298 298 298 296 293 289 286
227 234 236 244 252 260 281 327 357 11 11 4 2 4 4 8 19 25 31 21 23 8 356 344 335 328 323 319 313 308 305 301 299 298 296 295 296 297 296 292 289 288 286
226 230 232 237 249 254 261 287 334 355 360 356 355 356 352 352 2 9 9 3 356 340 343 332 325 322 321 317 308 304 300 300 302 297 297 294 298 297 294 289 286 285 285
233 232 234 238 244 250 255 266 295 328 340 341 348 344 337 334 337 338 334 335 333 333 333 329 327 320 314 307 307 306 304 304 301 297 296 296 294 292 289 287 286 280 277
227 224 231 237 241 246 248 254 269 296 320 324 330 330 325 324 319 322 324 326 326 324 323 319 317 314 315 313 310 307 304 300 297 294 293 291 291 289 288 285 282 280 276
234 235 238 243 244 247 246 244 252 272 293 304 307 314 314 313 311 315 315 318 315 314 317 314 312 309 308 303 300 298 296 294 292 291 290 289 287 286 284 282 279 277 277
241 237 238 245 253 250 244 244 249 263 277 287 295 297 301 305 306 306 302 303 305 311 309 306 305 301 303 303 301 299 297 296 294 292 291 288 287 286 285 282 283 282 280
250 248 244 247 252 257 249 247 251 261 270 278 286 286 292 297 300 295 293 298 304 304 302 302 305 305 308 306 304 302 300 300 301 301 299 297 296 293 291 290 288 285 280
253 250 249 249 251 261 260 252 252 258 267 274 281 281 286 290 292 290 294 302 301 299 301 305 307 306 307 306 304 303 305 306 305 301 300 299 298 297 295 293 291 288 286
258 257 253 253 257 262 264 258 254 259 266 271 276 276 280 282 282 288 296 299 299 303 304 308 308 307 308 308 307 307 307 307 306 304 304 303 302 299 296 294 293 291 290
257 258 259 257 253 257 258 256 257 262 268 272 272 272 277 276 280 286 292 297 300 303 308 311 311 311 311 309 307 308 307 307 305 304 305 303 302 299 297 296 295 293 292
254 251 250 249 250 252 254 257 257 259 264 268 268 270 275 273 278 286 292 297 302 308 313 314 312 310 308 309 309 307 307 305 304 304 303 302 300 298 296 296 293 292 292
248 244 247 246 250 252 253 255 257 256 264 264 265 270 271 270 276 287 295 301 307 312 313 312 311 310 311 310 307 305 305 304 302 302 301 299 297 294 294 292 292 293 291
242 237 241 250 259 262 257 256 258 259 260 260 261 265 264 271 282 289 296 304 310 310 308 308 308 311 311 310 308 309 308 305 303 301 301 299 295 296 296 295 293 291 291
232 238 247 255 264 264 258 252 247 251 250 253 257 255 262 274 284 293 304 307 306 307 309 309 308 309 308 309 311 310 307 304 300 300 299 298 297 295 293 292 292 291 291
232 244 252 263 270 261 248 243 244 244 247 252 248 253 262 276 292 302 305 306 308 308 305 305 306 309 313 315 317 318 317 313 309 304 298 295 291 291 290 290 291 291 290
235 244 255 264 263 250 235 233 234 239 241 240 244 246 262 286 297 303 306 309 308 305 305 307 309 313 316 320 321 320 317 315 313 308 306 303 299 296 295 295 294 294 293
228 240 255 264 249 232 222 223 226 230 236 237 233 250 275 290 301 307 310 309 308 309 311 312 315 319 320 321 320 320 318 313 309 307 305 305 300 299 299 300 300 300 300
228 235 247 261 235 216 217 221 224 229 230 223 235 257 278 293 304 310 313 314 313 313 316 317 319 320 321 321 321 320 317 314 312 309 308 309 308 308 306 303 303 302 302
Height
3151 3150 3150 3149 3148 3146 3145 3144 3143 3141 3140 3139 3137 3136 3135 3135 3135 3135 3136 3136 3136 3138 3139 3140 3140 3140 3141 3142 3142 3143 3143 3143 3143 3143 3142 3142 3142 3141 3141 3141 3141 3140 3140
3150 3150 3149 3149 3148 3147 3146 3144 3143 3142 3140 3138 3137 3136 3135 3134 3134 3135 3135 3135 3136 3137 3138 3138 3139 3139 3139 3140 3140 3141 3141 3141 3141 3141 3140 3140 3139 3139 3138 3138 3137 3137 3137
3149 3149 3149 3148 3148 3147 3146 3145 3144 3141 3140 3139 3138 3137 3135 3135 3134 3134 3134 3135 3136 3136 3136 3137 3137 3138 3138 3138 3139 3138 3138 3139 3138 3138 3138 3137 3137 3136 3135 3135 3134 3134 3134
3149 3149 3149 3149 3148 3148 3147 3145 3144 3142 3140 3139 3138 3136 3136 3135 3134 3133 3134 3134 3134 3135 3135 3136 3136 3137 3137 3137 3137 3137 3137 3136 3136 3136 3135 3134 3134 3133 3133 3132 3132 3132 3131
3148 3149 3149 3149 3148 3148 3147 3146 3144 3142 3140 3139 3138 3137 3136 3134 3134 3132 3133 3133 3133 3134 3134 3134 3135 3135 3135 3136 3135 3135 3135 3134 3133 3132 3132 3131 3131 3130 3129 3128 3128 3127 3128
3147 3148 3148 3148 3148 3148 3147 3146 3144 3142 3141 3139 3138 3136 3134 3133 3133 3132 3132 3132 3133 3133 3133 3133 3133 3133 3133 3133 3133 3132 3132 3131 3130 3130 3130 3129 3128 3127 3126 3125 3125 3125 3124
3145 3146 3148 3148 3147 3147 3146 3146 3144 3143 3141 3139 3138 3135 3133 3132 3131 3132 3131 3131 3131 3131 3131 3131 3131 3131 3131 3131 3131 3130 3129 3128 3128 3127 3127 3126 3125 3124 3124 3123 3123 3122 3122
3143 3144 3146 3146 3146 3146 3146 3145 3144 3142 3141 3139 3137 3135 3134 3132 3131 3131 3130 3131 3130 3130 3130 3130 3129 3129 3129 3129 3128 3128 3127 3126 3125 3124 3123 3123 3122 3122 3121 3121 3120 3119 3119
3140 3142 3143 3145 3145 3145 3144 3144 3143 3142 3140 3139 3137 3135 3134 3133 3132 3132 3131 3130 3129 3129 3129 3129 3128 3128 3127 3126 3126 3126 3125 3123 3122 3120 3119 3118 3118 3118 3118 3117 3116 3115 3115
3137 3139 3141 3142 3143 3143 3143 3142 3142 3141 3140 3138 3136 3134 3134 3133 3132 3131 3130 3130 3130 3130 3128 3128 3127 3126 3126 3125 3124 3123 3122 3120 3119 3117 3116 3114 3114 3113 3113 3112 3112 3111 3111
3135 3137 3138 3140 3140 3141 3141 3141 3140 3139 3138 3138 3135 3134 3133 3132 3132 3131 3130 3129 3129 3128 3128 3127 3126 3125 3123 3122 3121 3120 3118 3117 3115 3114 3112 3111 3110 3109 3108 3107 3107 3106 3106
3133 3134 3135 3136 3137 3138 3138 3138 3138 3137 3137 3136 3135 3134 3133 3132 3131 3130 3128 3128 3128 3126 3126 3125 3123 3122 3120 3119 3117 3116 3115 3114 3112 3110 3109 3107 3106 3105 3104 3102 3101 3100 3100
3129 3131 3132 3133 3134 3134 3135 3135 3135 3135 3135 3134 3132 3132 3131 3131 3130 3128 3127 3126 3125 3124 3123 3122 3120 3120 3117 3116 3114 3113 3111 3109 3108 3106 3104 3103 3101 3101 3099 3098 3096 3094 3094
3124 3126 3127 3129 3130 3130 3131 3131 3132 3132 3132 3131 3130 3129 3129 3129 3128 3126 3126 3124 3123 3121 3120 3119 3117 3117 3114 3112 3110 3108 3106 3104 3102 3100 3098 3097 3096 3094 3093 3091 3091 3090 3089
3121 3123 3124 3124 3125 3127 3127 3128 3128 3128 3128 3127 3126 3126 3126 3126 3125 3124 3123 3121 3120 3119 3117 3116 3114 3113 3110 3107 3105 3103 3101 3098 3096 3095 3093 3092 3090 3089 3087 3086 3084 3084 3082
3116 3118 3119 3120 3121 3122 3123 3124 3124 3124 3124 3123 3123 3123 3123 3123 3121 3120 3120 3118 3117 3115 3114 3112 3110 3109 3106 3104 3101 3098 3096 3094 3092 3091 3089 3087 3085 3083 3082 3080 3078 3077 3076
3109 3111 3113 3115 3116 3117 3118 3119 3119 3119 3120 3120 3120 3119 3119 3119 3118 3117 3116 3114 3113 3111 3109 3107 3106 3105 3102 3099 3096 3094 3092 3089 3088 3086 3084 3082 3080 3078 3076 3074 3072 3070 3069
3102 3104 3107 3109 3110 3111 3112 3113 3115 3116 3116 3116 3116 3115 3115 3115 3114 3113 3112 3110 3108 3107 3104 3103 3102 3099 3096 3094 3092 3090 3088 3085 3083 3081 3079 3077 3075 3073 3071 3069 3067 3065 3063
3096 3099 3101 3102 3103 3105 3106 3108 3110 3111 3111 3111 3111 3110 3111 3111 3109 3109 3108 3106 3104 3102 3099 3098 3097 3095 3093 3090 3088 3086 3084 3081 3079 3077 3075 3073 3070 3068 3066 3063 3060 3058 3056
3090 3093 3095 3096 3097 3098 3100 3102 3104 3105 3106 3106 3106 3106 3107 3107 3106 3105 3103 3102 3100 3097 3095 3093 3092 3090 3088 3086 3084 3081 3079 3076 3074 3071 3069 3067 3064 3061 3058 3055 3053 3050 3048
3084 3087 3090 3091 3091 3093 3095 3096 3098 3100 3100 3101 3102 3102 3102 3102 3102 3101 3099 3098 3095 3094 3091 3089 3087 3085 3082 3080 3079 3076 3073 3070 3068 3065 3062 3060 3057 3054 3051 3047 3045 3042 3039
3078 3081 3083 3085 3086 3087 3088 3089 3091 3093 3095 3097 3098 3098 3098 3098 3097 3097 3095 3094 3092 3089 3086 3084 3082 3080 3077 3075 3072 3069 3067 3066 3063 3060 3057 3053 3049 3046 3043 3039 3036 3033 3029
3072 3075 3077 3079 3079 3080 3081 3083 3086 3088 3091 3093 3094 3094 3095 3094 3094 3093 3092 3089 3087 3085 3082 3080 3077 3074 3071 3068 3065 3061 3056 3054 3050 3052 3051 3048 3043 3039 3035 3031 3027 3023 3019
3067 3069 3071 3072 3073 3074 3076 3079 3082 3085 3087 3089 3090 3090 3091 3091 3090 3089 3087 3085 3083 3081 3078 3075 3072 3068 3064 3060 3057 3054 3050 3044 3039 3034 3036 3037 3032 3028 3024 3021 3016 3011 3006
3060 3063 3065 3066 3067 3069 3072 3075 3078 3081 3083 3085 3086 3087 3087 3087 3086 3085 3083 3081 3078 3076 3072 3069 3065 3062 3057 3053 3050 3046 3043 3038 3033 3025 3018 3020 3020 3017 3012 3007 3001 2995 2990
3053 3057 3060 3062 3063 3065 3069 3072 3075 3078 3080 3082 3083 3083 3084 3083 3082 3081 3079 3076 3073 3070 3066 3063 3059 3055 3051 3046 3042 3037 3033 3027 3023 3017 3008 3004 2997 2997 2995 2993 2988 2981 2974